Regional Weather Roundup
Issued by NWS

Home | Current Version | Previous Version | Text Only | Print | Product List | Glossary On
Versions: 1 2 3 4 5 6 7 8 9 10 11 12 13 14 15 16 17 18 19 20 21 22 23 24 25 26 27 28 29 30 31 32 33 34 35 36 37 38 39 40 41 42 43 44 45 46 47 48 49 50
000
ASUS43 KLSX 210407
RWRMO

WEATHER SUMMARY FOR MISSOURI
NATIONAL WEATHER SERVICE SPRINGFIELD MO
1100 PM CDT WED SEP 20 2017

NOTE: "FAIR" INDICATES FEW OR NO CLOUDS BELOW 12,000 FEET WITH NO
       SIGNIFICANT WEATHER AND/OR OBSTRUCTIONS TO VISIBILITY.
       CURRENT SKY AND/OR WEATHER CONDITIONS ARE NOT AVAILABLE FOR
       CHILLICOTHE AND FARMINGTON.

MOZ001>031-035>038-043-044-053-054-210500-
...NORTHERN AND WESTERN MISSOURI...

CITY           SKY/WX    TMP DP  RH WIND       PRES   REMARKS
KANSAS CTY INT PTCLDY    78  74  87 SE8       29.86R
KANSAS C DTWN  CLEAR     85  74  69 S8        29.84R HX  92
LEE`S SUMMIT   CLEAR     82  74  76 S13       29.87R
ST JOSEPH      MOCLDY    73  73 100 CALM      29.84R
CHILLICOTHE      N/A     75  75 100 CALM      29.87R
KIRKSVILLE     CLOUDY    74  72  93 CALM      29.90R

$$
MOZ066>068-077>081-088>096-101>105-210500-
...SOUTHWEST MISSOURI...

CITY           SKY/WX    TMP DP  RH WIND       PRES   REMARKS
SPRINGFIELD    CLEAR     79  70  74 S10       29.93R
JOPLIN         CLEAR     80  72  76 S9        29.89R
BRANSON        CLEAR     77  68  73 S5        29.96R

$$
MOZ032>034-039>042-045>050-055>058-069>072-210500-
...CENTRAL MISSOURI...

CITY           SKY/WX    TMP DP  RH WIND       PRES   REMARKS
COLUMBIA       CLEAR     77  70  79 S8        29.91R
JEFFERSON CITY CLEAR     82  69  64 SE9       29.89R
ROLLA          CLEAR     79  71  76 S12       29.96R
SEDALIA        CLEAR     78  73  84 S7        29.91R
WHITEMAN AFB   PTCLDY    77  77 100 S7        29.88R
WARRENSBURG    CLEAR     77  70  78 SE6       29.87S
OSAGE BEACH    CLEAR     78  70  76 S5        29.93R

$$
MOZ051-052-059>065-210500-
...EAST CENTRAL MISSOURI...

CITY           SKY/WX    TMP DP  RH WIND       PRES   REMARKS
ST LOUIS INTL  CLEAR     84  70  62 S9        29.94R
SPIRIT OF STL  CLEAR     84  71  65 S8        29.92R
ST CHARLES     CLEAR     75  70  84 CALM      29.92R

$$
MOZ072>076-082>087-097>100-106>115-210500-
...SOUTH CENTRAL AND SOUTHEAST MISSOURI...

CITY           SKY/WX    TMP DP  RH WIND       PRES   REMARKS
CAPE GIRARDEAU CLEAR     79  70  74 S8        29.97R
FARMINGTON     CLEAR     77  69  76 S3        29.99R
POPLAR BLUFF   CLEAR     72  70  93 CALM      29.96R
WEST PLAINS    CLEAR     78  70  76 S7        29.99R

$$



USA.gov is the U.S. government's official web portal to all federal, state and local government web resources and services.